Location: Palomar Mountain Lodge
(33.3110°N, 116.8495°W)
Time: 11:20:43
(UTC-07:00)

SJ-11-01 - Pass Details

Date: 14 June 2018
Orbit: 685 x 701 km, 98.1° (Epoch: 21 June)

Event Time Altitude Azimuth Distance (km) Brightness Sun altitude
Exits shadow 20:34:56 - 156° (SSE) 2,629 6.8 -7.4°
Reaches altitude 10° 20:36:07 10° 153° (SSE) 2,153 6.3 -7.6°
Maximum altitude 20:40:44 59° 75° (ENE) 809 4.5 -8.4°
Drops below altitude 10° 20:45:24 10° 356° (N) 2,165 7.4 -9.2°
Sets 20:47:41 0° 353° (N) 3,085 8.3 -9.6°
